Owatonna, MN

10:59 AM CDT on August 25, 2016 (GMT -0500)
Owatonna Degner Regional

Weather History for KOWA - September, 2012

Change the Weather History Date:

Tuesday, September 11, 2012

  Actual Average Record
Temperature  
Mean Temperature 80 °F -  
Max Temperature 96 °F 77 °F 96 °F (2012)
Min Temperature 64 °F 52 °F 38 °F (1964)
Cooling Degree Days 15    
Growing Degree Days 30 (Base 50)    
Moisture  
Dew Point 33 °F    
Average Humidity 26    
Maximum Humidity 56    
Minimum Humidity 4    
Precipitation  
Precipitation 0.00 in - - ()
Sea Level Pressure  
Sea Level Pressure 29.83 in    
Wind  
Wind Speed 15 mph (South)    
Max Wind Speed 29 mph    
Max Gust Speed 37 mph    
Visibility 10 miles    
Events      
Averages and records for this station are not official NWS values.
T = Trace of Precipitation, MM = Missing Value Source: NWS Daily Summary

Daily Weather History Graph

Daily Weather History Graph

Search for Another Location

Airport or City:

Trip Planner

Search our weather history database for the weather conditions in past years. The results will help you decide how hot, cold, wet, or windy it might be!

Date:

Astronomy

Sep. 11, 2012 Rise Set
Actual Time 6:48 AM CDT 7:29 PM CDT
Civil Twilight 6:18 AM CDT 7:59 PM CDT
Nautical Twilight 5:44 AM CDT 8:33 PM CDT
Astronomical Twilight 5:08 AM CDT 9:09 PM CDT
Moon 1:57 AM CDT (9/11) 4:47 PM CDT (9/11)
Length of Visible Light 13h 40m
Length of Day
12h 41m
Waning Crescent, 21% of the Moon is Illuminated
Sep 11
Waning Crescent
Sep 15
New
Sep 22
First Quarter
Sep 29
Full
Oct 8
Last Quarter

Hourly Weather History & Observations

Time (CDT) Temp. Dew Point Humidity Pressure Visibility Wind Dir Wind Speed Gust Speed Precip Events Conditions
12:18 AM 69.8 °F 44.6 °F 40% 29.88 in 10.0 mi South 15.0 mph 20.7 mph N/A   Clear
12:38 AM 69.8 °F 44.6 °F 40% 29.88 in 10.0 mi South 13.8 mph 19.6 mph N/A   Clear
12:58 AM 69.8 °F 44.6 °F 40% 29.88 in 10.0 mi South 13.8 mph 19.6 mph N/A   Clear
1:18 AM 69.8 °F 44.6 °F 40% 29.87 in 10.0 mi South 13.8 mph 20.7 mph N/A   Clear
1:38 AM 69.8 °F 44.6 °F 40% 29.87 in 10.0 mi South 13.8 mph 21.9 mph N/A   Clear
1:58 AM 68.0 °F 46.4 °F 46% 29.87 in 10.0 mi SSE 12.7 mph 18.4 mph N/A   Clear
2:18 AM 68.0 °F 46.4 °F 46% 29.86 in 10.0 mi SSE 13.8 mph 17.3 mph N/A   Clear
2:38 AM 66.2 °F 46.4 °F 49% 29.87 in 10.0 mi SSE 12.7 mph 17.3 mph N/A   Clear
2:58 AM 66.2 °F 46.4 °F 49% 29.86 in 10.0 mi SSE 12.7 mph 17.3 mph N/A   Clear
3:18 AM 66.2 °F 46.4 °F 49% 29.86 in 10.0 mi SSE 11.5 mph 19.6 mph N/A   Clear
3:38 AM 66.2 °F 46.4 °F 49% 29.86 in 10.0 mi SSE 12.7 mph 19.6 mph N/A   Clear
3:58 AM 66.2 °F 46.4 °F 49% 29.86 in 10.0 mi South 12.7 mph 19.6 mph N/A   Clear
4:18 AM 64.4 °F 46.4 °F 52% 29.86 in 10.0 mi South 13.8 mph 18.4 mph N/A   Clear
4:38 AM 64.4 °F 46.4 °F 52% 29.85 in 10.0 mi SSE 16.1 mph 21.9 mph N/A   Clear
4:58 AM 64.4 °F 48.2 °F 56% 29.85 in 10.0 mi SSE 12.7 mph 18.4 mph N/A   Clear
5:18 AM 64.4 °F 48.2 °F 56% 29.85 in 10.0 mi South 12.7 mph 19.6 mph N/A   Clear
5:38 AM 64.4 °F 48.2 °F 56% 29.85 in 10.0 mi South 12.7 mph 19.6 mph N/A   Clear
5:58 AM 64.4 °F 48.2 °F 56% 29.85 in 10.0 mi South 15.0 mph 21.9 mph N/A   Clear
6:18 AM 66.2 °F 46.4 °F 49% 29.84 in 10.0 mi South 12.7 mph 20.7 mph N/A   Clear
6:38 AM 66.2 °F 46.4 °F 49% 29.84 in 10.0 mi South 16.1 mph 23.0 mph N/A   Clear
6:58 AM 66.2 °F 46.4 °F 49% 29.84 in 10.0 mi South 12.7 mph 21.9 mph N/A   Clear
7:18 AM 66.2 °F 46.4 °F 49% 29.85 in 10.0 mi South 15.0 mph 23.0 mph N/A   Clear
7:38 AM 66.2 °F 46.4 °F 49% 29.85 in 10.0 mi South 16.1 mph 19.6 mph N/A   Clear
7:58 AM 66.2 °F 46.4 °F 49% 29.85 in 10.0 mi South 13.8 mph 18.4 mph N/A   Clear
8:18 AM 68.0 °F 46.4 °F 46% 29.85 in 10.0 mi South 12.7 mph 23.0 mph N/A   Clear
8:38 AM 69.8 °F 46.4 °F 43% 29.84 in 10.0 mi South 12.7 mph 19.6 mph N/A   Clear
8:58 AM 71.6 °F 46.4 °F 41% 29.84 in 10.0 mi South 12.7 mph 20.7 mph N/A   Clear
9:18 AM 73.4 °F 44.6 °F 36% 29.84 in 10.0 mi South 15.0 mph 24.2 mph N/A   Clear
9:38 AM 75.2 °F 42.8 °F 31% 29.84 in 10.0 mi South 16.1 mph 23.0 mph N/A   Clear
9:58 AM 78.8 °F 42.8 °F 28% 29.84 in 10.0 mi South 12.7 mph 20.7 mph N/A   Clear
10:18 AM 80.6 °F 39.2 °F 23% 29.84 in 10.0 mi South 18.4 mph 23.0 mph N/A   Clear
10:38 AM 82.4 °F 35.6 °F 19% 29.84 in 10.0 mi South 15.0 mph 24.2 mph N/A   Clear
10:58 AM 84.2 °F 30.2 °F 14% 29.84 in 10.0 mi South 21.9 mph 29.9 mph N/A   Clear
11:18 AM 87.8 °F 30.2 °F 13% 29.83 in 10.0 mi South 20.7 mph 25.3 mph N/A   Clear
11:38 AM 87.8 °F 28.4 °F 12% 29.83 in 10.0 mi SSW 20.7 mph 28.8 mph N/A   Clear
11:58 AM 89.6 °F 26.6 °F 10% 29.83 in 10.0 mi South 18.4 mph 29.9 mph N/A   Clear
12:18 PM 91.4 °F 24.8 °F 9% 29.82 in 10.0 mi South 21.9 mph 28.8 mph N/A   Clear
12:38 PM 91.4 °F 21.2 °F 8% 29.82 in 10.0 mi South 23.0 mph 31.1 mph N/A   Clear
12:58 PM 93.2 °F 19.4 °F 7% 29.81 in 10.0 mi SSW 23.0 mph 33.4 mph N/A   Clear
1:18 PM 93.2 °F 19.4 °F 7% 29.81 in 10.0 mi South 26.5 mph 33.4 mph N/A   Clear
1:38 PM 93.2 °F 17.6 °F 6% 29.81 in 10.0 mi SSW 23.0 mph 34.5 mph N/A   Clear
1:58 PM 95.0 °F 17.6 °F 6% 29.80 in 10.0 mi South 23.0 mph 33.4 mph N/A   Clear
2:18 PM 95.0 °F 15.8 °F 6% 29.79 in 10.0 mi South 20.7 mph 26.5 mph N/A   Clear
2:38 PM 96.8 °F 10.4 °F 4% 29.79 in 10.0 mi South 24.2 mph 32.2 mph N/A   Clear
2:58 PM 96.8 °F 5.0 °F 4% 29.78 in 10.0 mi SSW 23.0 mph 35.7 mph N/A   Clear
3:18 PM 96.8 °F 5.0 °F 4% 29.78 in 10.0 mi SSW 24.2 mph 34.5 mph N/A   Clear
3:38 PM 96.8 °F 6.8 °F 4% 29.77 in 10.0 mi South 27.6 mph 35.7 mph N/A   Clear
3:58 PM 96.8 °F 10.4 °F 4% 29.77 in 10.0 mi South 20.7 mph 34.5 mph N/A   Clear
4:18 PM 96.8 °F 12.2 °F 4% 29.77 in 10.0 mi South 25.3 mph 33.4 mph N/A   Clear
4:38 PM 96.8 °F 10.4 °F 4% 29.77 in 10.0 mi South 28.8 mph 36.8 mph N/A   Clear
4:58 PM 95.0 °F 12.2 °F 5% 29.77 in 10.0 mi South 21.9 mph 33.4 mph N/A   Clear
5:18 PM 95.0 °F 12.2 °F 5% 29.77 in 10.0 mi South 25.3 mph 31.1 mph N/A   Clear
5:38 PM 93.2 °F 12.2 °F 5% 29.77 in 10.0 mi South 23.0 mph 27.6 mph N/A   Clear
5:58 PM 93.2 °F 15.8 °F 6% 29.78 in 10.0 mi South 17.3 mph 29.9 mph N/A   Clear
6:18 PM 91.4 °F 17.6 °F 7% 29.78 in 10.0 mi South 18.4 mph 21.9 mph N/A   Clear
6:38 PM 91.4 °F 21.2 °F 8% 29.79 in 10.0 mi South 11.5 mph 23.0 mph N/A   Clear
6:58 PM 89.6 °F 21.2 °F 8% 29.79 in 10.0 mi South 13.8 mph 26.5 mph N/A   Clear
7:18 PM 87.8 °F 26.6 °F 11% 29.80 in 10.0 mi South 8.1 mph 18.4 mph N/A   Clear
7:38 PM 86.0 °F 28.4 °F 12% 29.81 in 10.0 mi South 9.2 mph - N/A   Clear
7:58 PM 84.2 °F 32.0 °F 15% 29.82 in 10.0 mi South 8.1 mph - N/A   Clear
8:18 PM 84.2 °F 30.2 °F 14% 29.82 in 10.0 mi South 9.2 mph - N/A   Clear
8:38 PM 82.4 °F 30.2 °F 15% 29.83 in 10.0 mi South 9.2 mph - N/A   Clear
8:58 PM 82.4 °F 33.8 °F 17% 29.84 in 10.0 mi South 11.5 mph - N/A   Clear
9:18 PM 80.6 °F 35.6 °F 20% 29.84 in 10.0 mi South 9.2 mph - N/A   Clear
9:38 PM 80.6 °F 35.6 °F 20% 29.85 in 10.0 mi South 9.2 mph - N/A   Clear
9:58 PM 80.6 °F 35.6 °F 20% 29.85 in 10.0 mi South 10.4 mph - N/A   Clear
10:18 PM 80.6 °F 37.4 °F 21% 29.86 in 10.0 mi South 12.7 mph 17.3 mph N/A   Clear
10:38 PM 80.6 °F 37.4 °F 21% 29.86 in 10.0 mi South 13.8 mph 18.4 mph N/A   Clear
10:58 PM 80.6 °F 39.2 °F 23% 29.86 in 10.0 mi South 12.7 mph 18.4 mph N/A   Clear
11:18 PM 78.8 °F 39.2 °F 24% 29.87 in 10.0 mi South 12.7 mph 18.4 mph N/A   Clear
11:38 PM 78.8 °F 39.2 °F 24% 29.88 in 10.0 mi South 10.4 mph 17.3 mph N/A   Clear
11:58 PM 78.8 °F 39.2 °F 24% 29.87 in 10.0 mi South 12.7 mph 19.6 mph N/A   Clear